Location: Cran-Gévrier
(45.9039°N, 6.1012°E)
Time: 11:21:08
(UTC+00:00)

Spot 1 - Pass Details

Date: 09 February 2023
Orbit: 574 x 773 km, 98.8° (Epoch: 20 March)

Event Time Altitude Azimuth Distance (km) Brightness Sun altitude
Exits shadow 19:00:06 29° 9° (N) 1,083 5.2 -22.6°
Maximum altitude 19:02:09 80° 286° (WNW) 593 3.9 -22.9°
Drops below altitude 10° 19:06:15 10° 200° (SSW) 1,904 6.7 -23.6°
Sets 19:08:25 0° 199° (SSW) 2,818 7.6 -24.0°
